TimeCDT,TemperatureF,Dew PointF,Humidity,Sea Level PressureIn,VisibilityMPH,Wind Direction,Wind SpeedMPH,Gust SpeedMPH,PrecipitationIn,Events,Conditions,WindDirDegrees,DateUTC
12:56 AM,52.0,47.8,86,30.38,10.0,Calm,Calm,-,N/A,,Overcast,0,2013-04-27 05:56:00
1:56 AM,50.9,50.0,97,30.38,10.0,WNW,4.6,-,N/A,,Overcast,300,2013-04-27 06:56:00
2:56 AM,50.9,50.0,97,30.37,9.0,Calm,Calm,-,0.00,,Mostly Cloudy,0,2013-04-27 07:56:00
3:56 AM,50.0,50.0,100,30.36,10.0,Calm,Calm,-,N/A,,Overcast,0,2013-04-27 08:56:00
4:56 AM,50.0,50.0,100,30.32,9.0,Calm,Calm,-,N/A,,Overcast,0,2013-04-27 09:56:00
5:56 AM,50.9,50.0,97,30.31,10.0,Calm,Calm,-,N/A,,Overcast,0,2013-04-27 10:56:00
6:56 AM,52.0,50.0,93,30.32,10.0,Calm,Calm,-,N/A,,Overcast,0,2013-04-27 11:56:00
7:56 AM,54.0,48.9,83,30.31,10.0,SE,5.8,-,N/A,,Overcast,140,2013-04-27 12:56:00
8:56 AM,54.0,48.9,83,30.32,10.0,South,5.8,-,N/A,,Overcast,180,2013-04-27 13:56:00
9:56 AM,54.0,47.8,80,30.32,10.0,Calm,Calm,-,N/A,,Overcast,0,2013-04-27 14:56:00
10:22 AM,53.6,51.8,94,30.31,2.5,Calm,Calm,-,0.00,Rain,Light Rain,0,2013-04-27 15:22:00
10:40 AM,53.6,51.8,94,30.32,1.0,Calm,Calm,-,0.01,Rain,Light Rain,0,2013-04-27 15:40:00
10:48 AM,53.6,51.8,94,30.32,0.8,Calm,Calm,-,0.02,Rain,Light Rain,0,2013-04-27 15:48:00
10:56 AM,52.0,52.0,100,30.34,0.8,SE,4.6,-,0.03,Rain,Light Rain,130,2013-04-27 15:56:00
11:09 AM,51.8,51.8,100,30.32,1.2,SSE,5.8,-,0.00,Rain,Light Rain,160,2013-04-27 16:09:00
11:13 AM,51.8,51.8,100,30.32,2.0,SSE,8.1,-,0.01,Rain,Light Rain,160,2013-04-27 16:13:00
11:23 AM,51.8,51.8,100,30.32,2.0,South,8.1,-,0.01,Rain,Light Rain,170,2013-04-27 16:23:00
11:30 AM,51.8,51.8,100,30.31,1.5,SSE,6.9,-,0.01,Rain,Light Rain,150,2013-04-27 16:30:00
11:44 AM,53.6,53.6,100,30.31,2.5,SSE,6.9,-,0.02,Rain,Light Rain,160,2013-04-27 16:44:00
11:56 AM,52.9,52.9,100,30.32,2.0,SE,5.8,-,0.02,Rain,Light Rain,140,2013-04-27 16:56:00
12:56 PM,52.9,52.9,100,30.31,1.2,SSE,8.1,-,0.06,Rain,Rain,160,2013-04-27 17:56:00
1:02 PM,53.6,53.6,100,30.28,0.8,SSE,6.9,-,0.03,Rain,Heavy Rain,160,2013-04-27 18:02:00
1:14 PM,53.6,53.6,100,30.27,0.8,ESE,6.9,-,0.09,Rain,Heavy Rain,120,2013-04-27 18:14:00
1:21 PM,53.6,53.6,100,30.26,1.0,ESE,8.1,-,0.12,Rain,Rain,120,2013-04-27 18:21:00
1:25 PM,53.6,53.6,100,30.26,0.8,SE,6.9,-,0.14,Rain,Heavy Rain,130,2013-04-27 18:25:00
1:28 PM,53.6,53.6,100,30.25,1.0,ESE,6.9,-,0.15,Rain,Heavy Rain,120,2013-04-27 18:28:00
1:35 PM,53.6,53.6,100,30.25,1.5,ESE,6.9,-,0.16,Rain,Rain,110,2013-04-27 18:35:00
1:44 PM,53.6,53.6,100,30.25,2.5,SE,6.9,-,0.16,Rain,Light Rain,130,2013-04-27 18:44:00
1:56 PM,54.0,54.0,100,30.27,6.0,East,4.6,-,0.17,Rain,Light Rain,100,2013-04-27 18:56:00
2:15 PM,55.4,55.4,100,30.24,1.8,SSE,6.9,-,0.00,Rain,Light Rain,160,2013-04-27 19:15:00
2:37 PM,55.4,55.4,100,30.22,2.5,SSE,11.5,-,0.02,Rain,Light Rain,150,2013-04-27 19:37:00
2:44 PM,55.4,55.4,100,30.21,3.0,South,10.4,-,0.02,,Overcast,170,2013-04-27 19:44:00
2:56 PM,54.9,54.9,100,30.22,7.0,SSE,9.2,-,0.02,,Overcast,160,2013-04-27 19:56:00
3:26 PM,55.4,53.6,94,30.20,10.0,SSE,9.2,-,N/A,,Overcast,150,2013-04-27 20:26:00
3:46 PM,55.4,53.6,94,30.19,8.0,South,11.5,-,N/A,,Overcast,170,2013-04-27 20:46:00
3:56 PM,54.9,52.9,93,30.21,8.0,South,8.1,-,N/A,,Overcast,180,2013-04-27 20:56:00
4:56 PM,54.9,50.9,86,30.18,10.0,SSE,11.5,-,0.00,,Overcast,160,2013-04-27 21:56:00
5:41 PM,55.4,51.8,88,30.15,10.0,SSE,9.2,-,N/A,,Overcast,160,2013-04-27 22:41:00
5:56 PM,54.0,50.9,89,30.17,10.0,SSE,9.2,-,N/A,,Overcast,150,2013-04-27 22:56:00
6:16 PM,53.6,51.8,94,30.14,2.5,SSE,10.4,20.7,0.00,Rain,Light Rain,160,2013-04-27 23:16:00
6:19 PM,53.6,51.8,94,30.14,1.5,SSE,9.2,-,0.00,Rain,Light Rain,150,2013-04-27 23:19:00
6:22 PM,53.6,53.6,100,30.14,1.0,SSE,8.1,-,0.01,Rain,Rain,150,2013-04-27 23:22:00
6:31 PM,53.6,53.6,100,30.13,0.8,SSE,6.9,-,0.03,Rain,Rain,160,2013-04-27 23:31:00
6:37 PM,53.6,53.6,100,30.13,1.2,SSE,8.1,-,0.04,Rain,Light Rain,150,2013-04-27 23:37:00
6:39 PM,53.6,53.6,100,30.13,1.8,SSE,8.1,-,0.04,Rain,Light Rain,160,2013-04-27 23:39:00
6:43 PM,53.6,53.6,100,30.13,3.0,SSE,5.8,-,0.04,Rain,Light Rain,150,2013-04-27 23:43:00
6:56 PM,52.9,52.9,100,30.15,8.0,SSE,8.1,-,0.04,Rain,Light Rain,160,2013-04-27 23:56:00
7:56 PM,54.0,52.9,96,30.12,10.0,SE,8.1,-,0.00,,Overcast,140,2013-04-28 00:56:00
8:56 PM,54.9,52.9,93,30.10,10.0,Variable,5.8,-,0.00,,Overcast,0,2013-04-28 01:56:00
9:25 PM,55.4,53.6,94,30.10,10.0,Calm,Calm,-,0.00,Rain-Thunderstorm,Light Thunderstorms and Rain,0,2013-04-28 02:25:00
9:34 PM,53.6,53.6,100,30.09,1.5,ENE,5.8,-,0.08,Rain,Heavy Rain,70,2013-04-28 02:34:00
9:39 PM,53.6,53.6,100,30.09,2.5,ENE,3.5,-,0.08,Rain-Thunderstorm,Light Thunderstorms and Rain,70,2013-04-28 02:39:00
9:46 PM,53.6,53.6,100,30.09,10.0,East,4.6,-,0.08,Thunderstorm,Thunderstorm,100,2013-04-28 02:46:00
9:56 PM,54.0,54.0,100,30.11,8.0,NNE,4.6,-,0.08,Rain-Thunderstorm,Light Thunderstorms and Rain,20,2013-04-28 02:56:00
10:32 PM,53.6,53.6,100,30.07,9.0,ENE,5.8,-,0.01,Rain,Light Rain,60,2013-04-28 03:32:00
10:48 PM,53.6,53.6,100,30.05,10.0,East,10.4,-,0.01,Thunderstorm,Mostly Cloudy,80,2013-04-28 03:48:00
10:56 PM,54.0,54.0,100,30.06,10.0,ENE,8.1,-,0.01,Thunderstorm,Mostly Cloudy,60,2013-04-28 03:56:00
11:08 PM,53.6,53.6,100,30.04,9.0,East,5.8,-,N/A,,Mostly Cloudy,80,2013-04-28 04:08:00
11:31 PM,55.4,55.4,100,30.06,10.0,WNW,11.5,-,N/A,Thunderstorm,Thunderstorm,300,2013-04-28 04:31:00
11:41 PM,53.6,53.6,100,30.09,4.0,NW,10.4,-,0.05,Rain-Thunderstorm,Heavy Thunderstorms and Rain,310,2013-04-28 04:41:00
11:47 PM,53.6,53.6,100,30.10,1.8,NW,15.0,19.6,0.09,Rain-Thunderstorm,Heavy Thunderstorms and Rain,310,2013-04-28 04:47:00
11:56 PM,54.0,54.0,100,30.12,2.0,NW,10.4,-,0.13,Rain-Thunderstorm,Heavy Thunderstorms and Rain,310,2013-04-28 04:56:00